Regional Weather Roundup
Issued by NWS Green Bay, WI

Home | Current Version | Previous Version | Text Only | Print | Product List | Glossary On
Versions: 1 2 3 4 5 6 7 8 9 10 11 12 13 14 15 16 17 18 19 20 21 22 23 24 25 26 27 28 29 30 31 32 33 34 35 36 37 38 39 40 41 42 43 44 45 46 47 48 49 50
000
ASUS43 KGRB 200510
RWRGRB

NORTH-CENTRAL AND NORTHEAST WISCONSIN REGIONAL WEATHER ROUNDUP
NATIONAL WEATHER SERVICE GREEN BAY WI
1200 AM CDT SAT SEP 20 2014

WIZ005-009-010>012-018-019-200600-
NORTH CENTRAL WISCONSIN

CITY           SKY/WX    TMP DP  RH WIND       PRES   REMARKS
IRONWOOD       CLOUDY    66  61  82 SW13G18   29.62F
MANITOWISH WTR MOCLDY    64  59  84 SW10G17   29.69F
ARBOR VITAE    CLOUDY    66  58  76 SW10G20   29.71F
EAGLE RIVER    CLOUDY    64  54  69 SW8       29.71F
LAND O LAKES   CLOUDY    65  56  72 SW7       29.71F
RHINELANDER    CLOUDY    63  55  75 SW15      29.73F
PHILLIPS       PTCLDY    63  59  85 SW8       29.69F
ANTIGO         LGT RAIN  60  55  84 SW10      29.76F
TOMAHAWK       CLOUDY    62  56  78 S3        29.72F
MERRILL        CLOUDY    63  57  80 SW8       29.74F
$$

WIZ013-073-200600-
NORTHEAST WISCONSIN

CITY           SKY/WX    TMP DP  RH WIND       PRES   REMARKS
IRON MOUNTAIN  CLOUDY    65  52  62 S8        29.72S
MARINETTE      CLOUDY    64  52  63 SW12G21   29.75F
OCONTO         CLOUDY    66  53  63 SW13      29.76F
$$

WIZ017-030-035>037-045-200600-
CENTRAL WISCONSIN

CITY           SKY/WX    TMP DP  RH WIND       PRES   REMARKS
MEDFORD        CLOUDY    61  58  90 S9        29.72F
WAUSAU         CLOUDY    64  55  72 S13       29.73F
MOSINEE        TSTM      61  55  82 S13       29.77F
MARSHFIELD     CLOUDY    65  56  72 S13       29.75F
WISC RAPIDS    CLOUDY    66  55  67 S16G22    29.77F
STEVENS POINT  CLOUDY    63  53  69 S9        29.77F
WAUPACA        CLOUDY    66  54  65 S7        29.79F
SHAWANO        CLOUDY    66  53  62 S6        29.77F
CLINTONVILLE   CLOUDY    64  52  63 SW10      29.78F
$$

WIZ038-039-048-051-200600-
FOX VALLEY

CITY           SKY/WX    TMP DP  RH WIND       PRES   REMARKS
NWS GREEN BAY  CLOUDY    65  53  65 S12G18    29.80F
APPLETON       CLOUDY    63  52  67 S14       29.81F
OSHKOSH        MOCLDY    64  53  67 S12       29.82F
FOND DU LAC    PTCLDY    63  51  65 SW9       29.84S
$$

WIZ022-050-052-200600-
EAST CENTRAL WISCONSIN

CITY           SKY/WX    TMP DP  RH WIND       PRES   REMARKS
STURGEON BAY   CLOUDY    63  50  63 S15G22    29.79F
MANITOWOC      CLOUDY    62  51  67 S7        29.84F
SHEBOYGAN      MOCLDY    63  49  60 S15       29.85S
$$

LMZ563-521-522-541>543-200600-
LAKESHORE

STATION/POSITION TIME  TEMP    WIND        PRES    VSBY  WAVE
                       AIR SEA DIR/SP/G                  HT/PER
                 (UTC) (F)     (DEG/KT/KT) (MB)    (MI)  (FT/S)
SHEBOYGAN LKSHOR 0500   61 55  190/ 13/ 14 1010.9F
KEWAUNEE LKSHORE 0500   58                 1009.2S
NORTHPORT PIER   0500   62     160/  8/ 16 1008.5S
N MID LAKE BUOY  0500   62 58  210/ 25/ 29 1008.1F         9/ 8
S GREEN BAY BUOY 0400   62     VRB 16/ 19  1009.6
SISTER BAY LKSHO 0400          210/ 19/ 25   N/A
CHAMBERS ISLAND  0500   63     170/  9/ 19 1008.1F
MENOMINEE LKSHOR 0500   64                 1008.3F
$$



USA.gov is the U.S. government's official web portal to all federal, state and local government web resources and services.